Weather in Stolbishche

Russia / Republic of Tatarstan     55°38′33″N   49°13′02″E
temp.,
°C
wind,
m/s
gust,
m/s
humid.,
%
clouds,
%
prec.,
mm/h
press.,
hPa
HPBL,
m
21 june, mon
mon2100:00+22s3479100 0.0 102187
03:00+20w229050 0.0 102135
06:00+22w35786 0.0 1021221
09:00+27w34600 0.0 1021763
12:00+29w44490 0.0 10211710
15:00+29w45497 0.0 10201854
18:00+27wsw46630 0.0 1019340
21:00+23w34790 0.0 102160
22 june, tue
tue2200:00+21w34855 0.0 102162
03:00+20w228924 0.0 102127
06:00+23wnw23755 0.0 1022190
09:00+28wnw34551 0.0 1022664
12:00+31w34430 0.0 10211986
15:00+31w44445 0.0 10211849
18:00+28w475949 0.0 1020313
21:00+25wnw366624 0.0 1021125
23 june, wed
wed2300:00+22wnw357896 0.0 102199
03:00+21wnw228514 0.0 102139
06:00+24wnw357365 0.0 1021202
09:00+28nw465318 0.0 1020775
12:00+31wnw454327 0.0 10201885
15:00+31w454361 0.0 10191763
18:00+22ssw4688100 5.2 1018142
21:00+21wsw3483100 5.9 101956
24 june, thu
thu2400:00+21nw1283100 0.3 101915
03:00+20nw1292100 1.3 101917
06:00+22nnw248294 0.0 1019174
09:00+26wnw116099 0.0 1019437
12:00+29wnw2249100 0.0 10181087
15:00+30w2348100 0.0 10171575
18:00+28wsw466767 0.0 1016234
21:00+21nne61088100 2.4 1018236
25 june, fri
fri2500:00+19ssw4688100 1.4 1016103
03:00+20e0189100 3.9 101511
06:00+20w498399 0.3 1015198
09:00+26nw46675 0.4 1014482
12:00+31nw45525 0.0 10141501
15:00+31nw355237 0.1 10121498
18:00+21sw71289100 5.0 1013223
21:00+21w378039 5.6 1012111